| time (UTC) | temp C | wind direction | speed KPH | gust KPH | rain 1hr cm | rain 24hr cm | rain mn cm | humidity % | barometer mb |
| 20260906125637 | 23 | 149 | 0.0 | 1.6 | 0.00 | 0.00 | 0.00 | 99 | 1037.4 |
| 20260906125136 | 22 | 175 | 0.0 | 1.6 | 0.00 | 0.00 | 0.00 | 99 | 1037.3 |
| 20260906124632 | 22 | 186 | 0.0 | 3.2 | 0.00 | 0.00 | 0.00 | 99 | 1037.4 |
| 20260906124127 | 22 | 106 | 1.6 | 3.2 | 0.00 | 0.00 | 0.00 | 99 | 1037.1 |
| 20260906123626 | 22 | 137 | 1.6 | 1.6 | 0.00 | 0.00 | 0.00 | 99 | 1037.2 |
| 20260906123121 | 22 | 214 | 0.0 | 1.6 | 0.00 | 0.00 | 0.00 | 99 | 1036.8 |
| 20260906122620 | 22 | 166 | 0.0 | 0.0 | 0.00 | 0.00 | 0.00 | 99 | 1036.8 |
| 20260906122116 | 21 | 181 | 0.0 | 0.0 | 0.00 | 0.00 | 0.00 | 99 | 1036.8 |
| 20260906121612 | 21 | 176 | 0.0 | 0.0 | 0.00 | 0.00 | 0.00 | 99 | 1036.8 |
| 20260906121108 | 21 | 182 | 0.0 | 0.0 | 0.00 | 0.00 | 0.00 | 99 | 1036.5 |
| 20260906120603 | 21 | 178 | 0.0 | 0.0 | 0.00 | 0.00 | 0.00 | 99 | 1036.8 |
| 20260906120101 | 21 | 177 | 0.0 | 0.0 | 0.00 | 0.00 | 0.00 | 99 | 1036.6 |
| 20260906115600 | 21 | 182 | 0.0 | 0.0 | 0.00 | 0.00 | 0.00 | 99 | 1036.6 |
| 20260906115055 | 21 | 185 | 0.0 | 0.0 | 0.00 | 0.00 | 0.00 | 99 | 1036.4 |
| 20260906114549 | 21 | 182 | 0.0 | 0.0 | 0.00 | 0.00 | 0.00 | 99 | 1036.3 |
| 20260906114039 | 21 | 183 | 0.0 | 0.0 | 0.00 | 0.00 | 0.00 | 99 | 1036.4 |
| 20260906113538 | 20 | 184 | 0.0 | 0.0 | 0.00 | 0.00 | 0.00 | 99 | 1036.1 |
| 20260906113034 | 21 | 177 | 0.0 | 0.0 | 0.00 | 0.00 | 0.00 | 99 | 1035.8 |
| 20260906112528 | 21 | 180 | 0.0 | 0.0 | 0.00 | 0.00 | 0.00 | 99 | 1036.0 |
| 20260906112025 | 21 | 188 | 0.0 | 0.0 | 0.00 | 0.00 | 0.00 | 99 | 1035.9 |
| 20260906111518 | 21 | 187 | 0.0 | 0.0 | 0.00 | 0.00 | 0.00 | 99 | 1036.1 |
| 20260906111014 | 21 | 187 | 0.0 | 0.0 | 0.00 | 0.00 | 0.00 | 99 | 1036.0 |
| 20260906110509 | 21 | 181 | 0.0 | 0.0 | 0.00 | 0.00 | 0.00 | 99 | 1035.8 |
| 20260906110008 | 21 | 181 | 0.0 | 0.0 | 0.00 | 0.00 | 0.00 | 99 | 1035.8 |
| 20260906105503 | 21 | 181 | 0.0 | 0.0 | 0.00 | 0.00 | 0.00 | 99 | 1035.6 |
| 20260906104959 | 21 | 185 | 0.0 | 0.0 | 0.00 | 0.00 | 0.00 | 99 | 1035.9 |
| 20260906104458 | 21 | 185 | 0.0 | 0.0 | 0.00 | 0.00 | 0.00 | 99 | 1035.9 |
| 20260906103957 | 21 | 185 | 0.0 | 0.0 | 0.00 | 0.00 | 0.00 | 99 | 1035.9 |
| 20260906103455 | 21 | 182 | 0.0 | 0.0 | 0.00 | 0.00 | 0.00 | 99 | 1035.9 |
| 20260906102951 | 21 | 186 | 0.0 | 0.0 | 0.00 | 0.00 | 0.00 | 99 | 1035.9 |
| 20260906102450 | 21 | 184 | 0.0 | 0.0 | 0.00 | 0.00 | 0.00 | 99 | 1035.6 |
| 20260906101945 | 21 | 186 | 0.0 | 0.0 | 0.00 | 0.00 | 0.00 | 98 | 1035.6 |
| 20260906101440 | 21 | 183 | 0.0 | 0.0 | 0.00 | 0.00 | 0.00 | 98 | 1035.6 |
| 20260906100935 | 21 | 182 | 0.0 | 0.0 | 0.00 | 0.00 | 0.00 | 98 | 1035.4 |
| 20260906100436 | 21 | 184 | 0.0 | 0.0 | 0.00 | 0.00 | 0.00 | 98 | 1035.7 |
| 20260906095930 | 21 | 184 | 0.0 | 0.0 | 0.00 | 0.00 | 0.00 | 98 | 1035.9 |
| 20260906095426 | 21 | 184 | 0.0 | 0.0 | 0.00 | 0.00 | 0.00 | 98 | 1035.9 |
| 20260906094926 | 21 | 186 | 0.0 | 0.0 | 0.00 | 0.00 | 0.00 | 98 | 1035.6 |
| 20260906094415 | 21 | 183 | 0.0 | 0.0 | 0.00 | 0.00 | 0.00 | 97 | 1035.6 |
| 20260906093911 | 21 | 174 | 0.0 | 0.0 | 0.00 | 0.00 | 0.00 | 97 | 1035.7 |
| 20260906093407 | 21 | 186 | 0.0 | 0.0 | 0.00 | 0.00 | 0.00 | 97 | 1035.6 |
| 20260906092907 | 21 | 186 | 0.0 | 0.0 | 0.00 | 0.00 | 0.00 | 97 | 1035.6 |
| 20260906092407 | 21 | 186 | 0.0 | 0.0 | 0.00 | 0.00 | 0.00 | 97 | 1035.7 |
| 20260906091902 | 21 | 171 | 0.0 | 0.0 | 0.00 | 0.00 | 0.00 | 96 | 1035.7 |
| 20260906091357 | 21 | 185 | 0.0 | 0.0 | 0.00 | 0.00 | 0.00 | 96 | 1035.6 |
| 20260906090854 | 22 | 179 | 0.0 | 0.0 | 0.00 | 0.00 | 0.00 | 96 | 1035.6 |
| 20260906090354 | 21 | 185 | 0.0 | 0.0 | 0.00 | 0.00 | 0.00 | 96 | 1035.7 |
| 20260906085848 | 22 | 183 | 0.0 | 0.0 | 0.00 | 0.00 | 0.00 | 96 | 1035.8 |
| 20260906085348 | 22 | 186 | 0.0 | 0.0 | 0.00 | 0.00 | 0.00 | 95 | 1035.8 |
| 20260906084842 | 22 | 186 | 0.0 | 0.0 | 0.00 | 0.00 | 0.00 | 95 | 1035.5 |
| 20260906084342 | 22 | 186 | 0.0 | 0.0 | 0.00 | 0.00 | 0.00 | 95 | 1035.4 |
| 20260906083836 | 22 | 186 | 0.0 | 0.0 | 0.00 | 0.00 | 0.00 | 95 | 1035.7 |
| 20260906083333 | 22 | 186 | 0.0 | 0.0 | 0.00 | 0.00 | 0.00 | 95 | 1035.4 |
| 20260906082832 | 22 | 187 | 0.0 | 0.0 | 0.00 | 0.00 | 0.00 | 95 | 1035.5 |
| 20260906082327 | 22 | 178 | 0.0 | 0.0 | 0.00 | 0.00 | 0.00 | 94 | 1035.6 |
| 20260906081823 | 22 | 186 | 0.0 | 0.0 | 0.00 | 0.00 | 0.00 | 94 | 1035.2 |
| 20260906081319 | 22 | 186 | 0.0 | 0.0 | 0.00 | 0.00 | 0.00 | 93 | 1035.3 |
| 20260906080815 | 22 | 180 | 0.0 | 0.0 | 0.00 | 0.00 | 0.00 | 93 | 1035.4 |
| 20260906080311 | 22 | 182 | 0.0 | 0.0 | 0.00 | 0.00 | 0.00 | 93 | 1035.4 |
| 20260906075810 | 22 | 190 | 0.0 | 0.0 | 0.00 | 0.00 | 0.00 | 93 | 1035.4 |
| 20260906075310 | 22 | 190 | 0.0 | 0.0 | 0.00 | 0.00 | 0.00 | 92 | 1035.2 |
| 20260906074805 | 22 | 192 | 0.0 | 0.0 | 0.00 | 0.00 | 0.00 | 92 | 1035.4 |
| 20260906074304 | 22 | 187 | 0.0 | 0.0 | 0.00 | 0.00 | 0.00 | 92 | 1035.4 |
| 20260906073758 | 22 | 190 | 0.0 | 1.6 | 0.00 | 0.00 | 0.00 | 92 | 1035.4 |
| 20260906073253 | 22 | 189 | 0.0 | 0.0 | 0.00 | 0.00 | 0.00 | 93 | 1035.2 |
| 20260906072749 | 22 | 188 | 0.0 | 0.0 | 0.00 | 0.00 | 0.00 | 94 | 1035.4 |
| 20260906072245 | 22 | 186 | 0.0 | 0.0 | 0.00 | 0.00 | 0.00 | 95 | 1035.6 |
| 20260906071741 | 22 | 194 | 0.0 | 0.0 | 0.00 | 0.00 | 0.00 | 96 | 1035.5 |
| 20260906071241 | 22 | 191 | 0.0 | 0.0 | 0.00 | 0.00 | 0.00 | 96 | 1035.6 |
| 20260906070737 | 22 | 189 | 0.0 | 0.0 | 0.00 | 0.00 | 0.00 | 96 | 1035.6 |
| 20260906070233 | 22 | 185 | 0.0 | 0.0 | 0.00 | 0.00 | 0.00 | 96 | 1035.5 |
| 20260906065732 | 22 | 186 | 0.0 | 0.0 | 0.00 | 0.00 | 0.00 | 96 | 1035.7 |
| 20260906065227 | 23 | 191 | 0.0 | 0.0 | 0.00 | 0.00 | 0.00 | 96 | 1035.5 |
| 20260906064723 | 23 | 187 | 0.0 | 0.0 | 0.00 | 0.00 | 0.00 | 96 | 1035.5 |
| 20260906064219 | 23 | 186 | 0.0 | 0.0 | 0.00 | 0.00 | 0.00 | 96 | 1035.4 |
| 20260906063714 | 23 | 185 | 0.0 | 0.0 | 0.00 | 0.00 | 0.00 | 96 | 1035.5 |
| 20260906063209 | 23 | 186 | 0.0 | 0.0 | 0.00 | 0.00 | 0.00 | 96 | 1035.5 |
| 20260906062705 | 23 | 190 | 0.0 | 0.0 | 0.00 | 0.00 | 0.00 | 96 | 1035.3 |
| 20260906062203 | 23 | 189 | 0.0 | 0.0 | 0.00 | 0.00 | 0.00 | 96 | 1035.4 |
| 20260906061659 | 23 | 185 | 0.0 | 0.0 | 0.00 | 0.00 | 0.00 | 96 | 1035.8 |
| 20260906061155 | 23 | 189 | 0.0 | 0.0 | 0.00 | 0.00 | 0.00 | 96 | 1035.7 |
| 20260906060651 | 23 | 195 | 1.6 | 3.2 | 0.00 | 0.00 | 0.00 | 96 | 1036.0 |
| 20260906060148 | 23 | 182 | 1.6 | 3.2 | 0.00 | 0.00 | 0.00 | 97 | 1036.0 |
| 20260906055643 | 23 | 201 | 1.6 | 3.2 | 0.00 | 0.00 | 0.00 | 97 | 1036.1 |
| 20260906055138 | 23 | 179 | 0.0 | 1.6 | 0.00 | 0.00 | 0.00 | 97 | 1036.3 |
| 20260906054633 | 23 | 189 | 0.0 | 1.6 | 0.00 | 0.00 | 0.00 | 96 | 1035.9 |
| 20260906054128 | 23 | 184 | 0.0 | 0.0 | 0.00 | 0.00 | 0.00 | 96 | 1036.4 |
| 20260906053625 | 23 | 186 | 0.0 | 0.0 | 0.00 | 0.00 | 0.00 | 96 | 1036.3 |
| 20260906053120 | 23 | 202 | 0.0 | 1.6 | 0.00 | 0.00 | 0.00 | 96 | 1036.5 |
| 20260906052616 | 23 | 187 | 0.0 | 1.6 | 0.00 | 0.00 | 0.00 | 96 | 1036.3 |
| 20260906052112 | 23 | 185 | 0.0 | 0.0 | 0.00 | 0.00 | 0.00 | 96 | 1036.2 |
| 20260906051608 | 23 | 189 | 0.0 | 0.0 | 0.00 | 0.00 | 0.00 | 95 | 1036.1 |
| 20260906051103 | 23 | 179 | 0.0 | 0.0 | 0.00 | 0.00 | 0.00 | 96 | 1036.3 |
| 20260906050558 | 23 | 187 | 0.0 | 0.0 | 0.00 | 0.00 | 0.00 | 95 | 1036.1 |
| 20260906050054 | 23 | 187 | 0.0 | 0.0 | 0.00 | 0.66 | 0.66 | 95 | 1036.1 |
| 20260906045551 | 23 | 180 | 0.0 | 0.0 | 0.00 | 0.66 | 0.66 | 95 | 1036.2 |
| 20260906045047 | 23 | 187 | 0.0 | 0.0 | 0.00 | 0.66 | 0.66 | 95 | 1036.3 |
| 20260906044542 | 23 | 184 | 0.0 | 1.6 | 0.00 | 0.66 | 0.66 | 95 | 1036.2 |
| 20260906044038 | 23 | 173 | 1.6 | 3.2 | 0.00 | 0.66 | 0.66 | 95 | 1036.4 |
| 20260906043533 | 23 | 164 | 4.8 | 4.8 | 0.00 | 0.66 | 0.66 | 95 | 1036.4 |
| 20260906043030 | 23 | 163 | 1.6 | 1.6 | 0.00 | 0.66 | 0.66 | 94 | 1036.8 |
| 20260906042528 | 23 | 174 | 0.0 | 3.2 | 0.00 | 0.66 | 0.66 | 94 | 1036.6 |
| 20260906042023 | 23 | 32 | 4.8 | 9.7 | 0.00 | 0.66 | 0.66 | 93 | 1037.1 |
| 20260906041519 | 22 | 168 | 0.0 | 24.1 | 0.00 | 0.66 | 0.66 | 92 | 1036.8 |
| 20260906041013 | 22 | 225 | 3.2 | 4.8 | 0.00 | 0.66 | 0.66 | 91 | 1036.4 |
| 20260906040509 | 22 | 176 | 0.0 | 4.8 | 0.00 | 0.66 | 0.66 | 92 | 1036.0 |
| 20260906040004 | 23 | 29 | 8.0 | 11.3 | 0.00 | 0.66 | 0.66 | 92 | 1036.2 |
| 20260906035459 | 23 | 192 | 0.0 | 0.0 | 0.00 | 0.66 | 0.66 | 90 | 1035.3 |
| 20260906034955 | 23 | 194 | 0.0 | 1.6 | 0.00 | 0.66 | 0.66 | 88 | 1035.7 |
| 20260906034454 | 23 | 187 | 3.2 | 8.0 | 0.13 | 0.66 | 0.66 | 88 | 1035.6 |
| 20260906033950 | 23 | 183 | 0.0 | 0.0 | 0.13 | 0.66 | 0.66 | 89 | 1035.8 |
| 20260906033449 | 23 | 192 | 1.6 | 4.8 | 0.30 | 0.64 | 0.64 | 89 | 1036.3 |
| 20260906032946 | 23 | 57 | 1.6 | 9.7 | 0.30 | 0.64 | 0.64 | 92 | 1036.5 |
| 20260906032442 | 24 | 283 | 4.8 | 14.5 | 0.18 | 0.58 | 0.58 | 95 | 1036.3 |
| 20260906031936 | 24 | 130 | 6.4 | 14.5 | 0.00 | 0.56 | 0.56 | 97 | 1036.4 |
| 20260906031431 | 23 | 57 | 3.2 | 12.9 | 0.00 | 0.56 | 0.56 | 99 | 1036.5 |
| 20260906030921 | 23 | 85 | 0.0 | 8.0 | 0.00 | 0.56 | 0.56 | 99 | 1036.5 |
| 20260906030416 | 23 | 193 | 1.6 | 9.7 | 0.00 | 0.56 | 0.56 | 99 | 1036.6 |
| 20260906025910 | 23 | 202 | 3.2 | 12.9 | 0.00 | 0.56 | 0.56 | 99 | 1036.1 |
| 20260906025405 | 23 | 329 | 12.9 | 16.1 | 0.00 | 0.56 | 0.56 | 99 | 1036.1 |
| 20260906024904 | 23 | 188 | 0.0 | 1.6 | 0.00 | 0.56 | 0.56 | 99 | 1035.4 |
| 20260906024403 | 23 | 175 | 0.0 | 0.0 | 0.00 | 0.56 | 0.56 | 99 | 1035.3 |
| 20260906023858 | 23 | 169 | 0.0 | 1.6 | 0.00 | 0.56 | 0.56 | 99 | 1035.5 |
| 20260906023354 | 23 | 137 | 1.6 | 3.2 | 0.00 | 0.56 | 0.56 | 99 | 1035.1 |
| 20260906022849 | 23 | 184 | 0.0 | 0.0 | 0.00 | 0.56 | 0.56 | 99 | 1034.8 |
| 20260906022343 | 23 | 182 | 0.0 | 1.6 | 0.00 | 0.56 | 0.56 | 99 | 1034.8 |
| 20260906021840 | 23 | 180 | 0.0 | 3.2 | 0.00 | 0.56 | 0.56 | 99 | 1034.9 |
| 20260906021339 | 23 | 181 | 0.0 | 0.0 | 0.00 | 0.56 | 0.56 | 99 | 1034.8 |
| 20260906020834 | 23 | 176 | 3.2 | 3.2 | 0.00 | 0.56 | 0.56 | 99 | 1034.8 |
| 20260906020333 | 23 | 187 | 0.0 | 0.0 | 0.00 | 0.56 | 0.56 | 99 | 1034.7 |
| 20260906015828 | 23 | 188 | 3.2 | 4.8 | 0.00 | 0.56 | 0.56 | 99 | 1035.1 |
| 20260906015327 | 23 | 231 | 0.0 | 1.6 | 0.00 | 0.56 | 0.56 | 99 | 1034.8 |
| 20260906014826 | 23 | 185 | 0.0 | 0.0 | 0.00 | 0.56 | 0.56 | 99 | 1034.5 |
| 20260906014322 | 23 | 175 | 1.6 | 3.2 | 0.00 | 0.56 | 0.56 | 99 | 1034.6 |
| 20260906013818 | 23 | 188 | 0.0 | 3.2 | 0.00 | 0.56 | 0.56 | 99 | 1034.6 |
| 20260906013313 | 23 | 190 | 0.0 | 0.0 | 0.00 | 0.56 | 0.56 | 99 | 1034.7 |
| 20260906012808 | 23 | 193 | 0.0 | 0.0 | 0.00 | 0.56 | 0.56 | 99 | 1034.3 |
| 20260906012306 | 23 | 194 | 0.0 | 1.6 | 0.00 | 0.56 | 0.56 | 99 | 1034.7 |
| 20260906011758 | 23 | 196 | 0.0 | 0.0 | 0.00 | 0.56 | 0.56 | 99 | 1034.1 |
| 20260906011258 | 23 | 189 | 0.0 | 0.0 | 0.00 | 0.56 | 0.56 | 98 | 1034.3 |
| 20260906010754 | 23 | 184 | 0.0 | 0.0 | 0.00 | 0.56 | 0.56 | 98 | 1034.3 |
| 20260906010250 | 23 | 198 | 0.0 | 0.0 | 0.00 | 0.56 | 0.56 | 98 | 1034.3 |
| 20260906005744 | 23 | 187 | 0.0 | 1.6 | 0.00 | 0.56 | 0.56 | 97 | 1034.3 |
| 20260906005244 | 23 | 169 | 0.0 | 1.6 | 0.00 | 0.56 | 0.56 | 97 | 1034.3 |
| 20260906004737 | 23 | 177 | 0.0 | 3.2 | 0.00 | 0.56 | 0.56 | 97 | 1034.3 |
| 20260906004232 | 24 | 174 | 0.0 | 1.6 | 0.00 | 0.56 | 0.56 | 96 | 1034.2 |
| 20260906003727 | 23 | 193 | 0.0 | 0.0 | 0.00 | 0.56 | 0.56 | 96 | 1034.6 |
| 20260906003217 | 24 | 170 | 0.0 | 1.6 | 0.13 | 0.56 | 0.56 | 95 | 1034.5 |
| 20260906002711 | 24 | 180 | 0.0 | 0.0 | 0.13 | 0.56 | 0.56 | 94 | 1034.7 |
| 20260906002206 | 24 | 176 | 1.6 | 3.2 | 0.18 | 0.53 | 0.53 | 93 | 1034.8 |
| 20260906001702 | 24 | 188 | 1.6 | 4.8 | 0.30 | 0.53 | 0.53 | 94 | 1034.9 |
| 20260906001201 | 24 | 201 | 1.6 | 8.0 | 0.30 | 0.51 | 0.51 | 93 | 1035.2 |
| 20260906000657 | 25 | 185 | 0.0 | 9.7 | 0.18 | 0.48 | 0.48 | 94 | 1035.2 |
| 20260906000152 | 25 | 161 | 1.6 | 3.2 | 0.00 | 0.46 | 0.46 | 93 | 1035.4 |
| 20260905235651 | 25 | 174 | 1.6 | 3.2 | 0.00 | 0.46 | 0.46 | 92 | 1035.1 |
| 20260905235146 | 25 | 162 | 6.4 | 9.7 | 0.00 | 0.46 | 0.46 | 93 | 1035.3 |
| 20260905234641 | 25 | 199 | 1.6 | 4.8 | 0.00 | 0.46 | 0.46 | 92 | 1035.2 |
| 20260905234137 | 25 | 187 | 0.0 | 3.2 | 0.00 | 0.46 | 0.46 | 90 | 1034.5 |
| 20260905233632 | 26 | 125 | 3.2 | 4.8 | 1.98 | 0.46 | 0.46 | 86 | 1034.5 |
| 20260905233126 | 26 | 123 | 8.0 | 12.9 | 2.77 | 0.46 | 0.46 | 88 | 1034.1 |
| 20260905232621 | 27 | 98 | 4.8 | 25.7 | 0.79 | 0.13 | 0.13 | 84 | 1034.8 |
| 20260905232117 | 30 | 268 | 8.0 | 22.5 | 0.00 | 0.00 | 0.00 | 73 | 1034.6 |
| 20260905231617 | 32 | 98 | 3.2 | 4.8 | 0.00 | 0.00 | 0.00 | 69 | 1034.3 |
| 20260905231113 | 33 | 182 | 1.6 | 8.0 | 0.00 | 0.00 | 0.00 | 66 | 1034.2 |
| 20260905230609 | 33 | 73 | 4.8 | 8.0 | 0.00 | 0.00 | 0.00 | 65 | 1034.3 |
| 20260905230106 | 33 | 138 | 1.6 | 9.7 | 0.00 | 0.00 | 0.00 | 64 | 1034.0 |
| 20260905225600 | 33 | 157 | 1.6 | 4.8 | 0.00 | 0.00 | 0.00 | 65 | 1033.8 |
| 20260905225055 | 33 | 186 | 4.8 | 12.9 | 0.00 | 0.00 | 0.00 | 63 | 1033.9 |
| 20260905224550 | 33 | 183 | 0.0 | 3.2 | 0.00 | 0.00 | 0.00 | 64 | 1034.0 |
| 20260905224049 | 34 | 179 | 4.8 | 4.8 | 0.00 | 0.00 | 0.00 | 63 | 1034.0 |
| 20260905223547 | 33 | 171 | 0.0 | 4.8 | 0.00 | 0.00 | 0.00 | 64 | 1034.1 |
| 20260905223042 | 33 | 119 | 1.6 | 4.8 | 0.00 | 0.00 | 0.00 | 63 | 1034.0 |
| 20260905222537 | 33 | 171 | 1.6 | 1.6 | 0.00 | 0.00 | 0.00 | 63 | 1033.9 |
| 20260905222032 | 33 | 166 | 1.6 | 4.8 | 0.00 | 0.00 | 0.00 | 63 | 1033.9 |
| 20260905221529 | 33 | 154 | 3.2 | 8.0 | 0.00 | 0.00 | 0.00 | 63 | 1034.0 |
| 20260905221024 | 35 | 71 | 4.8 | 8.0 | 0.00 | 0.00 | 0.00 | 60 | 1033.9 |
| 20260905220520 | 35 | 179 | 1.6 | 4.8 | 0.00 | 0.00 | 0.00 | 56 | 1033.9 |
| 20260905220016 | 35 | 179 | 1.6 | 3.2 | 0.00 | 0.00 | 0.00 | 57 | 1034.0 |
| 20260905215510 | 35 | 182 | 1.6 | 4.8 | 0.00 | 0.00 | 0.00 | 57 | 1034.0 |
| 20260905215006 | 35 | 146 | 3.2 | 3.2 | 0.00 | 0.00 | 0.00 | 58 | 1034.1 |
| 20260905214501 | 35 | 197 | 1.6 | 3.2 | 0.00 | 0.00 | 0.00 | 57 | 1033.9 |
| 20260905214002 | 34 | 116 | 3.2 | 8.0 | 0.00 | 0.00 | 0.00 | 58 | 1033.8 |
| 20260905213458 | 35 | 161 | 1.6 | 3.2 | 0.00 | 0.00 | 0.00 | 56 | 1033.9 |
| 20260905212953 | 34 | 64 | 4.8 | 8.0 | 0.00 | 0.00 | 0.00 | 58 | 1034.0 |
| 20260905212447 | 33 | 115 | 1.6 | 4.8 | 0.00 | 0.00 | 0.00 | 59 | 1034.1 |
| 20260905211946 | 35 | 137 | 1.6 | 4.8 | 0.00 | 0.00 | 0.00 | 58 | 1034.1 |
| 20260905211442 | 33 | 180 | 0.0 | 3.2 | 0.00 | 0.00 | 0.00 | 60 | 1034.4 |
| 20260905210932 | 34 | 169 | 3.2 | 9.7 | 0.00 | 0.00 | 0.00 | 60 | 1034.2 |
| 20260905210432 | 35 | 119 | 1.6 | 9.7 | 0.00 | 0.00 | 0.00 | 58 | 1034.5 |
| 20260905205932 | 35 | 150 | 1.6 | 4.8 | 0.00 | 0.00 | 0.00 | 57 | 1034.6 |
| 20260905205427 | 34 | 192 | 0.0 | 3.2 | 0.00 | 0.00 | 0.00 | 58 | 1034.4 |
| 20260905204926 | 34 | 178 | 0.0 | 9.7 | 0.00 | 0.00 | 0.00 | 59 | 1034.7 |
| 20260905204422 | 36 | 195 | 8.0 | 12.9 | 0.00 | 0.00 | 0.00 | 57 | 1034.8 |
| 20260905203921 | 36 | 175 | 1.6 | 1.6 | 0.00 | 0.00 | 0.00 | 54 | 1034.7 |
| 20260905203417 | 35 | 191 | 0.0 | 4.8 | 0.00 | 0.00 | 0.00 | 55 | 1034.7 |
| 20260905202912 | 35 | 183 | 1.6 | 3.2 | 0.00 | 0.00 | 0.00 | 55 | 1034.8 |
| 20260905202407 | 35 | 193 | 0.0 | 3.2 | 0.00 | 0.00 | 0.00 | 52 | 1034.5 |
| 20260905201903 | 36 | 211 | 1.6 | 3.2 | 0.00 | 0.00 | 0.00 | 53 | 1034.9 |
| 20260905201358 | 36 | 227 | 3.2 | 4.8 | 0.00 | 0.00 | 0.00 | 52 | 1035.0 |
| 20260905200857 | 37 | 271 | 6.4 | 8.0 | 0.00 | 0.00 | 0.00 | 51 | 1034.6 |
| 20260905200354 | 36 | 329 | 3.2 | 4.8 | 0.00 | 0.00 | 0.00 | 50 | 1034.9 |
| 20260905195852 | 36 | 194 | 1.6 | 9.7 | 0.00 | 0.00 | 0.00 | 53 | 1034.9 |
| 20260905195347 | 37 | 177 | 4.8 | 8.0 | 0.00 | 0.00 | 0.00 | 50 | 1034.9 |
| 20260905194842 | 37 | 195 | 4.8 | 4.8 | 0.00 | 0.00 | 0.00 | 49 | 1035.2 |
| 20260905194336 | 37 | 300 | 4.8 | 8.0 | 0.00 | 0.00 | 0.00 | 49 | 1035.0 |
| 20260905193836 | 38 | 208 | 3.2 | 9.7 | 0.00 | 0.00 | 0.00 | 48 | 1035.2 |
| 20260905193331 | 37 | 190 | 3.2 | 4.8 | 0.00 | 0.00 | 0.00 | 49 | 1035.4 |
| 20260905192827 | 37 | 218 | 4.8 | 9.7 | 0.00 | 0.00 | 0.00 | 49 | 1035.2 |
| 20260905192322 | 37 | 193 | 0.0 | 8.0 | 0.00 | 0.00 | 0.00 | 50 | 1035.2 |
| 20260905191821 | 37 | 198 | 0.0 | 11.3 | 0.00 | 0.00 | 0.00 | 51 | 1035.2 |
| 20260905191320 | 37 | 251 | 4.8 | 9.7 | 0.00 | 0.00 | 0.00 | 51 | 1035.6 |
| 20260905190818 | 37 | 192 | 1.6 | 4.8 | 0.00 | 0.00 | 0.00 | 52 | 1035.5 |
| 20260905190313 | 37 | 191 | 0.0 | 11.3 | 0.00 | 0.00 | 0.00 | 52 | 1035.6 |
| 20260905185812 | 36 | 228 | 4.8 | 9.7 | 0.00 | 0.00 | 0.00 | 54 | 1035.5 |
| 20260905185307 | 36 | 210 | 0.0 | 8.0 | 0.00 | 0.00 | 0.00 | 52 | 1035.8 |
| 20260905184806 | 37 | 34 | 4.8 | 9.7 | 0.00 | 0.00 | 0.00 | 51 | 1035.8 |
| 20260905184300 | 37 | 192 | 0.0 | 3.2 | 0.00 | 0.00 | 0.00 | 49 | 1035.5 |
| 20260905183759 | 37 | 223 | 3.2 | 11.3 | 0.00 | 0.00 | 0.00 | 54 | 1035.7 |
| 20260905183254 | 37 | 252 | 4.8 | 9.7 | 0.00 | 0.00 | 0.00 | 51 | 1035.9 |
| 20260905182754 | 37 | 195 | 4.8 | 4.8 | 0.00 | 0.00 | 0.00 | 50 | 1036.0 |
| 20260905182254 | 37 | 218 | 1.6 | 4.8 | 0.00 | 0.00 | 0.00 | 53 | 1036.1 |
| 20260905181749 | 37 | 193 | 0.0 | 9.7 | 0.00 | 0.00 | 0.00 | 54 | 1036.1 |
| 20260905181248 | 37 | 203 | 1.6 | 4.8 | 0.00 | 0.00 | 0.00 | 55 | 1036.0 |
| 20260905180743 | 36 | 227 | 0.0 | 3.2 | 0.00 | 0.00 | 0.00 | 58 | 1036.2 |
| 20260905180238 | 35 | 134 | 0.0 | 3.2 | 0.00 | 0.00 | 0.00 | 61 | 1036.5 |
| 20260905175733 | 35 | 123 | 4.8 | 8.0 | 0.00 | 0.00 | 0.00 | 62 | 1036.6 |
| 20260905175227 | 35 | 184 | 1.6 | 8.0 | 0.00 | 0.00 | 0.00 | 64 | 1036.6 |
| 20260905174722 | 36 | 57 | 1.6 | 14.5 | 0.00 | 0.00 | 0.00 | 61 | 1036.5 |
| 20260905174218 | 36 | 190 | 0.0 | 4.8 | 0.00 | 0.00 | 0.00 | 60 | 1036.5 |
| 20260905173714 | 36 | 188 | 0.0 | 3.2 | 0.00 | 0.00 | 0.00 | 61 | 1036.7 |
| 20260905173210 | 37 | 188 | 0.0 | 4.8 | 0.00 | 0.00 | 0.00 | 59 | 1036.5 |
| 20260905172709 | 36 | 190 | 0.0 | 9.7 | 0.00 | 0.00 | 0.00 | 60 | 1036.6 |
| 20260905172203 | 36 | 168 | 6.4 | 12.9 | 0.00 | 0.00 | 0.00 | 58 | 1036.7 |
| 20260905171659 | 35 | 183 | 0.0 | 4.8 | 0.00 | 0.00 | 0.00 | 62 | 1036.8 |
| 20260905171155 | 35 | 195 | 0.0 | 4.8 | 0.00 | 0.00 | 0.00 | 61 | 1037.3 |
| 20260905170652 | 35 | 197 | 3.2 | 4.8 | 0.00 | 0.00 | 0.00 | 61 | 1037.1 |
| 20260905170152 | 35 | 100 | 1.6 | 3.2 | 0.00 | 0.00 | 0.00 | 62 | 1037.1 |
| 20260905165652 | 35 | 193 | 0.0 | 4.8 | 0.00 | 0.00 | 0.00 | 63 | 1037.1 |
| 20260905165147 | 35 | 177 | 4.8 | 9.7 | 0.00 | 0.00 | 0.00 | 63 | 1037.2 |
| 20260905164642 | 35 | 166 | 4.8 | 4.8 | 0.00 | 0.00 | 0.00 | 62 | 1037.3 |
| 20260905164141 | 35 | 193 | 0.0 | 0.0 | 0.00 | 0.00 | 0.00 | 63 | 1037.3 |
| 20260905163637 | 34 | 190 | 0.0 | 8.0 | 0.00 | 0.00 | 0.00 | 67 | 1037.4 |
| 20260905163134 | 34 | 155 | 0.0 | 8.0 | 0.00 | 0.00 | 0.00 | 65 | 1037.5 |
| 20260905162630 | 34 | 182 | 1.6 | 3.2 | 0.00 | 0.00 | 0.00 | 65 | 1037.5 |
| 20260905162129 | 33 | 209 | 3.2 | 4.8 | 0.00 | 0.00 | 0.00 | 67 | 1037.6 |
| 20260905161628 | 33 | 188 | 0.0 | 1.6 | 0.00 | 0.00 | 0.00 | 68 | 1037.6 |
| 20260905161126 | 33 | 176 | 0.0 | 1.6 | 0.00 | 0.00 | 0.00 | 67 | 1037.6 |
| 20260905160621 | 33 | 225 | 1.6 | 8.0 | 0.00 | 0.00 | 0.00 | 71 | 1037.5 |
| 20260905160120 | 33 | 178 | 0.0 | 3.2 | 0.00 | 0.00 | 0.00 | 70 | 1037.8 |
| 20260905155615 | 32 | 181 | 0.0 | 3.2 | 0.00 | 0.00 | 0.00 | 71 | 1037.7 |
| 20260905155108 | 32 | 191 | 0.0 | 1.6 | 0.00 | 0.00 | 0.00 | 72 | 1037.9 |
| 20260905154608 | 32 | 175 | 0.0 | 4.8 | 0.00 | 0.00 | 0.00 | 72 | 1038.0 |
| 20260905154104 | 32 | 235 | 3.2 | 3.2 | 0.00 | 0.00 | 0.00 | 72 | 1038.0 |
| 20260905153559 | 32 | 196 | 0.0 | 0.0 | 0.00 | 0.00 | 0.00 | 73 | 1038.1 |
| 20260905153054 | 32 | 187 | 0.0 | 0.0 | 0.00 | 0.00 | 0.00 | 73 | 1038.2 |
| 20260905152549 | 31 | 174 | 0.0 | 0.0 | 0.00 | 0.00 | 0.00 | 76 | 1038.2 |
| 20260905152044 | 31 | 174 | 1.6 | 4.8 | 0.00 | 0.00 | 0.00 | 77 | 1038.0 |
| 20260905151539 | 30 | 205 | 1.6 | 3.2 | 0.00 | 0.00 | 0.00 | 79 | 1038.0 |
| 20260905151034 | 30 | 194 | 0.0 | 1.6 | 0.00 | 0.00 | 0.00 | 79 | 1038.3 |
| 20260905150524 | 29 | 164 | 0.0 | 1.6 | 0.00 | 0.00 | 0.00 | 81 | 1038.3 |
| 20260905150021 | 29 | 168 | 3.2 | 4.8 | 0.00 | 0.00 | 0.00 | 82 | 1038.2 |
| 20260905145515 | 28 | 189 | 0.0 | 4.8 | 0.00 | 0.00 | 0.00 | 86 | 1038.3 |
| 20260905145015 | 28 | 186 | 0.0 | 1.6 | 0.00 | 0.00 | 0.00 | 86 | 1038.2 |
| 20260905144509 | 27 | 188 | 0.0 | 1.6 | 0.00 | 0.00 | 0.00 | 87 | 1038.2 |
| 20260905144008 | 27 | 195 | 0.0 | 0.0 | 0.00 | 0.00 | 0.00 | 88 | 1038.2 |
| 20260905143507 | 27 | 185 | 0.0 | 1.6 | 0.00 | 0.00 | 0.00 | 89 | 1038.4 |
| 20260905143002 | 27 | 185 | 0.0 | 1.6 | 0.00 | 0.00 | 0.00 | 90 | 1038.3 |
| 20260905142501 | 26 | 198 | 0.0 | 1.6 | 0.00 | 0.00 | 0.00 | 90 | 1038.4 |
| 20260905141957 | 26 | 191 | 0.0 | 3.2 | 0.00 | 0.00 | 0.00 | 91 | 1038.6 |
| 20260905141451 | 26 | 188 | 0.0 | 0.0 | 0.00 | 0.00 | 0.00 | 92 | 1038.4 |
| 20260905140948 | 26 | 190 | 0.0 | 1.6 | 0.00 | 0.00 | 0.00 | 92 | 1038.4 |
| 20260905140443 | 26 | 189 | 0.0 | 0.0 | 0.00 | 0.00 | 0.00 | 93 | 1038.5 |
| 20260905135941 | 26 | 196 | 0.0 | 1.6 | 0.00 | 0.00 | 0.00 | 93 | 1038.4 |
| 20260905135437 | 26 | 185 | 0.0 | 0.0 | 0.00 | 0.00 | 0.00 | 94 | 1038.4 |
| 20260905134927 | 25 | 171 | 0.0 | 0.0 | 0.00 | 0.00 | 0.00 | 94 | 1038.4 |
| 20260905134426 | 25 | 201 | 0.0 | 0.0 | 0.00 | 0.00 | 0.00 | 95 | 1038.3 |
| 20260905133920 | 25 | 186 | 0.0 | 0.0 | 0.00 | 0.00 | 0.00 | 96 | 1038.6 |
| 20260905133420 | 25 | 183 | 0.0 | 0.0 | 0.00 | 0.00 | 0.00 | 97 | 1038.1 |
| 20260905132920 | 25 | 184 | 0.0 | 0.0 | 0.00 | 0.00 | 0.00 | 97 | 1038.4 |
| 20260905132415 | 25 | 188 | 0.0 | 0.0 | 0.00 | 0.00 | 0.00 | 98 | 1038.3 |
| 20260905131910 | 25 | 149 | 0.0 | 3.2 | 0.00 | 0.00 | 0.00 | 99 | 1038.4 |
| 20260905131406 | 24 | 147 | 1.6 | 3.2 | 0.00 | 0.00 | 0.00 | 99 | 1038.5 |
| 20260905130906 | 24 | 179 | 0.0 | 1.6 | 0.00 | 0.00 | 0.00 | 99 | 1038.4 |
| 20260905130406 | 24 | 184 | 0.0 | 0.0 | 0.00 | 0.00 | 0.00 | 99 | 1038.6 |
| 20260905125901 | 24 | 173 | 0.0 | 0.0 | 0.00 | 0.00 | 0.00 | 99 | 1038.6 |